Year,Month,Day,Hour,Minute,Value (Times are PST for temperature in C)
2021,06,28,00,29,25.10
2021,06,28,00,30,25.00
2021,06,28,00,31,24.90
2021,06,28,00,32,24.80
2021,06,28,00,33,24.80
2021,06,28,00,34,24.90
2021,06,28,00,35,24.90
2021,06,28,00,36,24.90
2021,06,28,00,37,24.90
2021,06,28,00,38,24.90
2021,06,28,00,39,24.90
2021,06,28,00,40,24.90
2021,06,28,00,41,25.00
2021,06,28,00,42,25.00
2021,06,28,00,43,25.10
2021,06,28,00,44,25.20
2021,06,28,00,45,25.20
2021,06,28,00,46,25.20
2021,06,28,00,47,25.20
2021,06,28,00,48,25.10
2021,06,28,00,49,25.10
2021,06,28,00,50,25.00
2021,06,28,00,51,25.00
2021,06,28,00,52,25.00
2021,06,28,00,53,25.00
2021,06,28,00,54,25.00
2021,06,28,00,55,25.00
2021,06,28,00,56,24.90
2021,06,28,00,57,24.90
2021,06,28,00,58,24.90
2021,06,28,00,59,24.80
2021,06,28,01,00,24.70
2021,06,28,01,01,24.70
2021,06,28,01,02,24.70
2021,06,28,01,03,24.70
2021,06,28,01,04,24.70
2021,06,28,01,05,24.70
2021,06,28,01,06,24.70
2021,06,28,01,07,24.60
2021,06,28,01,08,24.60
2021,06,28,01,09,24.60
2021,06,28,01,10,24.60
2021,06,28,01,11,24.50
2021,06,28,01,12,24.50
2021,06,28,01,13,24.40
2021,06,28,01,14,24.40
2021,06,28,01,15,24.40
2021,06,28,01,16,24.30
2021,06,28,01,17,24.30
2021,06,28,01,18,24.30
2021,06,28,01,19,24.30
2021,06,28,01,20,24.30
2021,06,28,01,21,24.30
2021,06,28,01,22,24.20
2021,06,28,01,23,24.20
2021,06,28,01,24,24.20
2021,06,28,01,25,24.20
2021,06,28,01,26,24.20
2021,06,28,01,27,24.10
2021,06,28,01,28,24.10
2021,06,28,01,29,24.20
2021,06,28,01,30,24.20
2021,06,28,01,31,24.10
2021,06,28,01,32,24.10
2021,06,28,01,33,24.10
2021,06,28,01,34,24.10
2021,06,28,01,35,24.10
2021,06,28,01,36,24.10
2021,06,28,01,37,24.10
2021,06,28,01,38,24.10
2021,06,28,01,39,24.10
2021,06,28,01,40,24.10
2021,06,28,01,41,24.10
2021,06,28,01,42,24.10
2021,06,28,01,43,24.10
2021,06,28,01,44,24.10
2021,06,28,01,45,24.10
2021,06,28,01,46,24.10
2021,06,28,01,47,24.00
2021,06,28,01,48,24.00
2021,06,28,01,49,24.00
2021,06,28,01,50,24.00
2021,06,28,01,51,24.10
2021,06,28,01,52,24.10
2021,06,28,01,53,24.00
2021,06,28,01,54,24.00
2021,06,28,01,55,24.00
2021,06,28,01,56,23.90
2021,06,28,01,57,23.90
2021,06,28,01,58,23.90
2021,06,28,01,59,23.90
2021,06,28,02,00,23.90
2021,06,28,02,01,23.90
2021,06,28,02,02,23.90
2021,06,28,02,03,23.90
2021,06,28,02,04,24.00
2021,06,28,02,05,23.90
2021,06,28,02,06,23.90
2021,06,28,02,07,23.90
2021,06,28,02,08,23.80
2021,06,28,02,09,23.80
2021,06,28,02,10,23.80
2021,06,28,02,11,23.80
2021,06,28,02,12,23.80
2021,06,28,02,13,23.70
2021,06,28,02,14,23.70
2021,06,28,02,15,23.70
2021,06,28,02,16,23.60
2021,06,28,02,17,23.70
2021,06,28,02,18,23.70
2021,06,28,02,19,23.70
2021,06,28,02,20,23.70
2021,06,28,02,21,23.70
2021,06,28,02,22,23.60
2021,06,28,02,23,23.60
2021,06,28,02,24,23.60
2021,06,28,02,25,23.60
2021,06,28,02,26,23.60
2021,06,28,02,27,23.60
2021,06,28,02,28,23.60
2021,06,28,02,29,23.60
2021,06,28,02,30,23.60
2021,06,28,02,31,23.60
2021,06,28,02,32,23.50
2021,06,28,02,33,23.50
2021,06,28,02,34,23.50
2021,06,28,02,35,23.50
2021,06,28,02,36,23.50
2021,06,28,02,37,23.40
2021,06,28,02,38,23.40
2021,06,28,02,39,23.50
2021,06,28,02,40,23.50
2021,06,28,02,41,23.40
2021,06,28,02,42,23.40
2021,06,28,02,43,23.40
2021,06,28,02,44,23.40
2021,06,28,02,45,23.40
2021,06,28,02,46,23.40
2021,06,28,02,47,23.40
2021,06,28,02,48,23.40
2021,06,28,02,49,23.30
2021,06,28,02,50,23.30
2021,06,28,02,51,23.20
2021,06,28,02,52,23.20
2021,06,28,02,53,23.20
2021,06,28,02,54,23.20
2021,06,28,02,55,23.20
2021,06,28,02,56,23.30
2021,06,28,02,57,23.40
2021,06,28,02,58,23.40
2021,06,28,02,59,23.30
2021,06,28,03,00,23.30
2021,06,28,03,01,23.30
2021,06,28,03,02,23.30
2021,06,28,03,03,23.30
2021,06,28,03,04,23.30
2021,06,28,03,05,23.30
2021,06,28,03,06,23.30
2021,06,28,03,07,23.30
2021,06,28,03,08,23.20
2021,06,28,03,09,23.20
2021,06,28,03,10,23.20
2021,06,28,03,11,23.20
2021,06,28,03,12,23.20
2021,06,28,03,13,23.20
2021,06,28,03,14,23.20
2021,06,28,03,15,23.20
2021,06,28,03,16,23.20
2021,06,28,03,17,23.10
2021,06,28,03,18,23.10
2021,06,28,03,19,23.00
2021,06,28,03,20,23.00
2021,06,28,03,21,22.90
2021,06,28,03,22,22.90
2021,06,28,03,23,22.90
2021,06,28,03,24,23.00
2021,06,28,03,25,23.00
2021,06,28,03,26,23.00
2021,06,28,03,27,23.00
2021,06,28,03,28,23.00
2021,06,28,03,29,22.90
2021,06,28,03,30,22.80
2021,06,28,03,31,22.80
2021,06,28,03,32,22.90
2021,06,28,03,33,22.90
2021,06,28,03,34,22.90
2021,06,28,03,35,22.90
2021,06,28,03,36,22.90
2021,06,28,03,37,22.90
2021,06,28,03,38,22.90
2021,06,28,03,39,22.90
2021,06,28,03,40,22.90
2021,06,28,03,41,22.90
2021,06,28,03,42,22.90
2021,06,28,03,43,22.90
2021,06,28,03,44,23.00
2021,06,28,03,45,23.00
2021,06,28,03,46,23.00
2021,06,28,03,47,23.10
2021,06,28,03,48,23.10
2021,06,28,03,49,23.10
2021,06,28,03,50,23.10
2021,06,28,03,51,23.10
2021,06,28,03,52,23.10
2021,06,28,03,53,23.00
2021,06,28,03,54,23.00
2021,06,28,03,55,23.00
2021,06,28,03,56,22.90
2021,06,28,03,57,22.90
2021,06,28,03,58,22.90
2021,06,28,03,59,22.90
2021,06,28,04,00,22.90
2021,06,28,04,01,23.00
2021,06,28,04,02,23.00
2021,06,28,04,03,23.00
2021,06,28,04,04,23.00
2021,06,28,04,05,22.90
2021,06,28,04,06,22.90
2021,06,28,04,07,22.90
2021,06,28,04,08,22.90
2021,06,28,04,09,22.80
2021,06,28,04,10,22.80
2021,06,28,04,11,22.80
2021,06,28,04,12,22.80
2021,06,28,04,13,22.80
2021,06,28,04,14,22.80
2021,06,28,04,15,22.80
2021,06,28,04,16,22.80
2021,06,28,04,17,22.80
2021,06,28,04,18,22.80
2021,06,28,04,19,22.70
2021,06,28,04,20,22.70
2021,06,28,04,21,22.70
2021,06,28,04,22,22.70
2021,06,28,04,23,22.70
2021,06,28,04,24,22.80
2021,06,28,04,25,22.70
2021,06,28,04,26,22.70
2021,06,28,04,27,22.80
2021,06,28,04,28,22.80
2021,06,28,04,29,22.70
2021,06,28,04,30,22.70
2021,06,28,04,31,22.70
2021,06,28,04,32,22.70
2021,06,28,04,33,22.70
2021,06,28,04,34,22.70
2021,06,28,04,35,22.70
2021,06,28,04,36,22.70
2021,06,28,04,37,22.70
2021,06,28,04,38,22.70
2021,06,28,04,39,22.70
2021,06,28,04,40,22.70
2021,06,28,04,41,22.70
2021,06,28,04,42,22.70
2021,06,28,04,43,22.70
2021,06,28,04,44,22.70
2021,06,28,04,45,22.70
2021,06,28,04,46,22.60
2021,06,28,04,47,22.60
2021,06,28,04,48,22.60
2021,06,28,04,49,22.60
2021,06,28,04,50,22.60
2021,06,28,04,51,22.50
2021,06,28,04,52,22.50
2021,06,28,04,53,22.50
2021,06,28,04,54,22.50
2021,06,28,04,55,22.40
2021,06,28,04,56,22.40
2021,06,28,04,57,22.40
2021,06,28,04,58,22.40
2021,06,28,04,59,22.40
2021,06,28,05,00,22.40
2021,06,28,05,01,22.30
2021,06,28,05,02,22.30
2021,06,28,05,03,22.30
2021,06,28,05,04,22.30
2021,06,28,05,05,22.30
2021,06,28,05,06,22.30
2021,06,28,05,07,22.30
2021,06,28,05,08,22.30
2021,06,28,05,09,22.30
2021,06,28,05,10,22.20
2021,06,28,05,11,22.20
2021,06,28,05,12,22.20
2021,06,28,05,13,22.20
2021,06,28,05,14,22.20
2021,06,28,05,15,22.20
2021,06,28,05,16,22.10
2021,06,28,05,17,22.10
2021,06,28,05,18,22.10
2021,06,28,05,19,22.10
2021,06,28,05,20,22.10
2021,06,28,05,21,22.10
2021,06,28,05,22,22.10
2021,06,28,05,23,22.10
2021,06,28,05,24,22.10
2021,06,28,05,25,22.10
2021,06,28,05,26,22.10
2021,06,28,05,27,22.10
2021,06,28,05,28,22.10
2021,06,28,05,29,22.10
2021,06,28,05,30,22.10
2021,06,28,05,31,22.10
2021,06,28,05,32,22.10
2021,06,28,05,33,22.10
2021,06,28,05,34,22.10
2021,06,28,05,35,22.10
2021,06,28,05,36,22.10
2021,06,28,05,37,22.10
2021,06,28,05,38,22.10
2021,06,28,05,39,22.10
2021,06,28,05,40,22.10
2021,06,28,05,41,22.10
2021,06,28,05,42,22.10
2021,06,28,05,43,22.10
2021,06,28,05,44,22.10
2021,06,28,05,45,22.10
2021,06,28,05,46,22.20
2021,06,28,05,47,22.20
2021,06,28,05,48,22.20
2021,06,28,05,49,22.20
2021,06,28,05,50,22.20
2021,06,28,05,51,22.20
2021,06,28,05,52,22.20
2021,06,28,05,53,22.20
2021,06,28,05,54,22.20
2021,06,28,05,55,22.20
2021,06,28,05,56,22.20
2021,06,28,05,57,22.20
2021,06,28,05,58,22.30
2021,06,28,05,59,22.30
2021,06,28,06,00,22.30
2021,06,28,06,01,22.30
2021,06,28,06,02,22.30
2021,06,28,06,03,22.40
2021,06,28,06,04,22.40
2021,06,28,06,05,22.40
2021,06,28,06,06,22.40
2021,06,28,06,07,22.40
2021,06,28,06,08,22.40
2021,06,28,06,09,22.40
2021,06,28,06,10,22.50
2021,06,28,06,11,22.50
2021,06,28,06,12,22.50
2021,06,28,06,13,22.60
2021,06,28,06,14,22.60
2021,06,28,06,15,22.70
2021,06,28,06,16,22.70
2021,06,28,06,17,22.80
2021,06,28,06,18,22.80
2021,06,28,06,19,22.90
2021,06,28,06,20,22.90
2021,06,28,06,21,22.90
2021,06,28,06,22,22.90
2021,06,28,06,23,23.00
2021,06,28,06,24,23.00
2021,06,28,06,25,23.10
2021,06,28,06,26,23.10
2021,06,28,06,27,23.10
2021,06,28,06,28,23.10
2021,06,28,06,29,23.10
2021,06,28,06,30,23.10
2021,06,28,06,31,23.10
2021,06,28,06,32,23.10
2021,06,28,06,33,23.20
2021,06,28,06,34,23.20
2021,06,28,06,35,23.20
2021,06,28,06,36,23.20
2021,06,28,06,37,23.20
2021,06,28,06,38,23.30
2021,06,28,06,39,23.30
2021,06,28,06,40,23.40
2021,06,28,06,41,23.40
2021,06,28,06,42,23.50
2021,06,28,06,43,23.50
2021,06,28,06,44,23.60
2021,06,28,06,45,23.60
2021,06,28,06,46,23.70
2021,06,28,06,47,23.80
2021,06,28,06,48,23.80
2021,06,28,06,49,23.90
2021,06,28,06,50,24.00
2021,06,28,06,51,24.10
2021,06,28,06,52,24.10
2021,06,28,06,53,24.20
2021,06,28,06,54,24.20
2021,06,28,06,55,24.30
2021,06,28,06,56,24.30
2021,06,28,06,57,24.40
2021,06,28,06,58,24.40
2021,06,28,06,59,24.60
2021,06,28,07,00,24.80
2021,06,28,07,01,24.90
2021,06,28,07,02,25.00
2021,06,28,07,03,25.00
2021,06,28,07,04,25.00
2021,06,28,07,05,24.90
2021,06,28,07,06,25.00
2021,06,28,07,07,25.10
2021,06,28,07,08,25.20
2021,06,28,07,09,25.30
2021,06,28,07,10,25.40
2021,06,28,07,11,25.40
2021,06,28,07,12,25.50
2021,06,28,07,13,25.60
2021,06,28,07,14,25.80
2021,06,28,07,15,25.90
2021,06,28,07,16,25.90
2021,06,28,07,17,26.10
2021,06,28,07,18,26.20
2021,06,28,07,19,26.30
2021,06,28,07,20,26.40
2021,06,28,07,21,26.50
2021,06,28,07,22,26.60
2021,06,28,07,23,26.70
2021,06,28,07,24,26.80
2021,06,28,07,25,27.00
2021,06,28,07,26,27.00
2021,06,28,07,27,27.20
2021,06,28,07,28,27.20
2021,06,28,07,29,27.30
2021,06,28,07,30,27.40
2021,06,28,07,31,27.40
2021,06,28,07,32,27.50
2021,06,28,07,33,27.50
2021,06,28,07,34,27.60
2021,06,28,07,35,27.70
2021,06,28,07,36,27.80
2021,06,28,07,37,27.80
2021,06,28,07,38,27.90
2021,06,28,07,39,27.90
2021,06,28,07,40,28.00
2021,06,28,07,41,28.10
2021,06,28,07,42,28.10
2021,06,28,07,43,28.20
2021,06,28,07,44,28.30
2021,06,28,07,45,28.40
2021,06,28,07,46,28.40
2021,06,28,07,47,28.40
2021,06,28,07,48,28.40
2021,06,28,07,49,28.40
2021,06,28,07,50,28.40
2021,06,28,07,51,28.40
2021,06,28,07,52,28.40
2021,06,28,07,53,28.30
2021,06,28,07,54,28.30
2021,06,28,07,55,28.20
2021,06,28,07,56,28.30
2021,06,28,07,57,28.20
2021,06,28,07,58,28.30
2021,06,28,07,59,28.30
2021,06,28,08,00,28.30
2021,06,28,08,01,28.30
2021,06,28,08,02,28.30
2021,06,28,08,03,28.30
2021,06,28,08,04,28.30
2021,06,28,08,05,28.30
2021,06,28,08,06,28.30
2021,06,28,08,07,28.30
2021,06,28,08,08,28.30
2021,06,28,08,09,28.20
2021,06,28,08,10,28.20
2021,06,28,08,11,28.20
2021,06,28,08,12,28.10
2021,06,28,08,13,28.10
2021,06,28,08,14,28.10
2021,06,28,08,15,28.10
2021,06,28,08,16,28.20
2021,06,28,08,17,28.20
2021,06,28,08,18,28.20
2021,06,28,08,19,28.30
2021,06,28,08,20,28.30
2021,06,28,08,21,28.30
2021,06,28,08,22,28.30
2021,06,28,08,23,28.30
2021,06,28,08,24,28.30
2021,06,28,08,25,28.40
2021,06,28,08,26,28.40
2021,06,28,08,27,28.40
2021,06,28,08,28,28.40
2021,06,28,08,29,28.30
2021,06,28,08,30,28.30
2021,06,28,08,31,28.40
2021,06,28,08,32,28.30
2021,06,28,08,33,28.30
2021,06,28,08,34,28.30
2021,06,28,08,35,28.20
2021,06,28,08,36,28.10
2021,06,28,08,37,28.10
2021,06,28,08,38,28.00
2021,06,28,08,39,28.00
2021,06,28,08,40,28.00
2021,06,28,08,41,28.00
2021,06,28,08,42,28.00
2021,06,28,08,43,28.00
2021,06,28,08,44,28.00
2021,06,28,08,45,28.00
2021,06,28,08,46,28.00
2021,06,28,08,47,28.10
2021,06,28,08,48,28.10
2021,06,28,08,49,28.10
2021,06,28,08,50,28.10
2021,06,28,08,51,28.10
2021,06,28,08,52,28.10
2021,06,28,08,53,28.10
2021,06,28,08,54,28.00
2021,06,28,08,55,28.00
2021,06,28,08,56,27.90
2021,06,28,08,57,27.90
2021,06,28,08,58,27.90
2021,06,28,08,59,27.90
2021,06,28,09,00,27.90
2021,06,28,09,01,27.90
2021,06,28,09,02,27.90
2021,06,28,09,03,27.90
2021,06,28,09,04,28.00
2021,06,28,09,05,28.00
2021,06,28,09,06,28.10
2021,06,28,09,07,28.10
2021,06,28,09,08,28.20
2021,06,28,09,09,28.20
2021,06,28,09,10,28.30
2021,06,28,09,11,28.40
2021,06,28,09,12,28.50
2021,06,28,09,13,28.50
2021,06,28,09,14,28.50
2021,06,28,09,15,28.40
2021,06,28,09,16,28.40
2021,06,28,09,17,28.30
2021,06,28,09,18,28.30
2021,06,28,09,19,28.20
2021,06,28,09,20,28.10
2021,06,28,09,21,28.10
2021,06,28,09,22,28.10
2021,06,28,09,23,28.00
2021,06,28,09,24,27.90
2021,06,28,09,25,27.90
2021,06,28,09,26,27.80
2021,06,28,09,27,27.80
2021,06,28,09,28,27.80
2021,06,28,09,29,27.80
2021,06,28,09,30,27.70
2021,06,28,09,31,27.70
2021,06,28,09,32,27.70
2021,06,28,09,33,27.70
2021,06,28,09,34,27.70
2021,06,28,09,35,27.70
2021,06,28,09,36,27.70
2021,06,28,09,37,27.80
2021,06,28,09,38,27.80
2021,06,28,09,39,27.80
2021,06,28,09,40,27.80
2021,06,28,09,41,27.80
2021,06,28,09,42,27.80
2021,06,28,09,43,27.80
2021,06,28,09,44,27.90
2021,06,28,09,45,28.00
2021,06,28,09,46,28.00
2021,06,28,09,47,28.10
2021,06,28,09,48,28.10
2021,06,28,09,49,28.00
2021,06,28,09,50,28.10
2021,06,28,09,51,28.20
2021,06,28,09,52,28.20
2021,06,28,09,53,28.30
2021,06,28,09,54,28.30
2021,06,28,09,55,28.30
2021,06,28,09,56,28.40
2021,06,28,09,57,28.40
2021,06,28,09,58,28.30
2021,06,28,09,59,28.20
2021,06,28,10,00,28.10
2021,06,28,10,01,28.00
2021,06,28,10,02,27.80
2021,06,28,10,03,27.60
2021,06,28,10,04,27.50
2021,06,28,10,05,27.40
2021,06,28,10,06,27.30
2021,06,28,10,07,27.20
2021,06,28,10,08,27.20
2021,06,28,10,09,27.20
2021,06,28,10,10,27.30
2021,06,28,10,11,27.30
2021,06,28,10,12,27.30
2021,06,28,10,13,27.30
2021,06,28,10,14,27.30
2021,06,28,10,15,27.30
2021,06,28,10,16,27.30
2021,06,28,10,17,27.30
2021,06,28,10,18,27.40
2021,06,28,10,19,27.40
2021,06,28,10,20,27.40
2021,06,28,10,21,27.50
2021,06,28,10,22,27.60
2021,06,28,10,23,27.60
2021,06,28,10,24,27.60
2021,06,28,10,25,27.60
2021,06,28,10,26,27.60
2021,06,28,10,27,27.60
2021,06,28,10,28,27.70
2021,06,28,10,29,27.70
2021,06,28,10,30,27.70
2021,06,28,10,31,27.70
2021,06,28,10,32,27.70
2021,06,28,10,33,27.70
2021,06,28,10,34,27.60
2021,06,28,10,35,27.60
2021,06,28,10,36,27.40
2021,06,28,10,37,27.40
2021,06,28,10,38,27.30
2021,06,28,10,39,27.30
2021,06,28,10,40,27.30
2021,06,28,10,41,27.30
2021,06,28,10,42,27.30
2021,06,28,10,43,27.30
2021,06,28,10,44,27.40
2021,06,28,10,45,27.50
2021,06,28,10,46,27.50
2021,06,28,10,47,27.50
2021,06,28,10,48,27.60
2021,06,28,10,49,27.60
2021,06,28,10,50,27.60
2021,06,28,10,51,27.60
2021,06,28,10,52,27.70
2021,06,28,10,53,27.70
2021,06,28,10,54,27.70
2021,06,28,10,55,27.80
2021,06,28,10,56,27.80
2021,06,28,10,57,27.80
2021,06,28,10,58,27.80
2021,06,28,10,59,27.80
2021,06,28,11,00,28.00
2021,06,28,11,01,28.00
2021,06,28,11,02,28.10
2021,06,28,11,03,28.20
2021,06,28,11,04,28.40
2021,06,28,11,05,28.50
2021,06,28,11,06,28.70
2021,06,28,11,07,28.90
2021,06,28,11,08,29.10
2021,06,28,11,09,29.20
2021,06,28,11,10,29.20
2021,06,28,11,11,29.20
2021,06,28,11,12,29.10
2021,06,28,11,13,29.00
2021,06,28,11,14,28.90
2021,06,28,11,15,28.70
2021,06,28,11,16,28.50
2021,06,28,11,17,28.40
2021,06,28,11,18,28.20
2021,06,28,11,19,28.10
2021,06,28,11,20,28.10
2021,06,28,11,21,28.00
2021,06,28,11,22,28.00
2021,06,28,11,23,27.90
2021,06,28,11,24,27.80
2021,06,28,11,25,27.70
2021,06,28,11,26,27.60
2021,06,28,11,27,27.60
2021,06,28,11,28,27.70
2021,06,28,11,29,27.70
2021,06,28,11,30,27.70
2021,06,28,11,31,27.80
2021,06,28,11,32,27.90
2021,06,28,11,33,28.10
2021,06,28,11,34,28.30
2021,06,28,11,35,28.40
2021,06,28,11,36,28.50
2021,06,28,11,37,28.60
2021,06,28,11,38,28.70
2021,06,28,11,39,28.80
2021,06,28,11,40,28.90
2021,06,28,11,41,29.00
2021,06,28,11,42,29.00
2021,06,28,11,43,29.10
2021,06,28,11,44,29.00
2021,06,28,11,45,29.10
2021,06,28,11,46,29.10
2021,06,28,11,47,29.10
2021,06,28,11,48,29.20
2021,06,28,11,49,29.30
2021,06,28,11,50,29.30
2021,06,28,11,51,29.30
2021,06,28,11,52,29.30
2021,06,28,11,53,29.20
2021,06,28,11,54,29.20
2021,06,28,11,55,29.20
2021,06,28,11,56,29.20
2021,06,28,11,57,29.30
2021,06,28,11,58,29.40
2021,06,28,11,59,29.40
2021,06,28,12,00,29.50
2021,06,28,12,01,29.40
2021,06,28,12,02,29.50
2021,06,28,12,03,29.50
2021,06,28,12,04,29.60
2021,06,28,12,05,29.70
2021,06,28,12,06,29.70
2021,06,28,12,07,29.70
2021,06,28,12,08,29.80
2021,06,28,12,09,29.90
2021,06,28,12,10,30.10
2021,06,28,12,11,30.20
2021,06,28,12,12,30.30
2021,06,28,12,13,30.40
2021,06,28,12,14,30.50
2021,06,28,12,15,30.60
2021,06,28,12,16,30.80
2021,06,28,12,17,30.80
2021,06,28,12,18,31.00
2021,06,28,12,19,31.10
2021,06,28,12,20,31.10
2021,06,28,12,21,31.20
2021,06,28,12,22,31.30
2021,06,28,12,23,31.40
2021,06,28,12,24,31.40
2021,06,28,12,25,31.40
2021,06,28,12,26,31.40
2021,06,28,12,27,31.50
2021,06,28,12,28,31.50
2021,06,28,12,29,31.60
2021,06,28,12,30,31.60
2021,06,28,12,31,31.70
2021,06,28,12,32,31.70
2021,06,28,12,33,31.70
2021,06,28,12,34,31.70
2021,06,28,12,35,31.70
2021,06,28,12,36,31.70
2021,06,28,12,37,31.60
2021,06,28,12,38,31.70
2021,06,28,12,39,31.70
2021,06,28,12,40,31.70
2021,06,28,12,41,31.60
2021,06,28,12,42,31.60
2021,06,28,12,43,31.70
2021,06,28,12,44,31.70
2021,06,28,12,45,31.70
2021,06,28,12,46,31.80
2021,06,28,12,47,31.80
2021,06,28,12,48,32.00
2021,06,28,12,49,32.00
2021,06,28,12,50,32.10
2021,06,28,12,51,32.10
2021,06,28,12,52,32.20
2021,06,28,12,53,32.20
2021,06,28,12,54,32.20
2021,06,28,12,55,32.10
2021,06,28,12,56,32.00
2021,06,28,12,57,32.00
2021,06,28,12,58,32.00
2021,06,28,12,59,32.00
2021,06,28,13,00,32.00
2021,06,28,13,01,32.00
2021,06,28,13,02,32.00
2021,06,28,13,03,31.90
2021,06,28,13,04,31.90
2021,06,28,13,05,31.90
2021,06,28,13,06,31.90
2021,06,28,13,07,31.80
2021,06,28,13,08,31.80
2021,06,28,13,09,31.80
2021,06,28,13,10,31.80
2021,06,28,13,11,31.80
2021,06,28,13,12,31.80
2021,06,28,13,13,31.90
2021,06,28,13,14,31.90
2021,06,28,13,15,31.90
2021,06,28,13,16,32.00
2021,06,28,13,17,32.10
2021,06,28,13,18,32.10
2021,06,28,13,19,32.10
2021,06,28,13,20,32.10
2021,06,28,13,21,32.10
2021,06,28,13,22,32.10
2021,06,28,13,23,32.10
2021,06,28,13,24,32.10
2021,06,28,13,25,32.20
2021,06,28,13,26,32.20
2021,06,28,13,27,32.20
2021,06,28,13,28,32.20
2021,06,28,13,29,32.20
2021,06,28,13,30,32.20
2021,06,28,13,31,32.20
2021,06,28,13,32,32.30
2021,06,28,13,33,32.30
2021,06,28,13,34,32.40
2021,06,28,13,35,32.40
2021,06,28,13,36,32.40
2021,06,28,13,37,32.40
2021,06,28,13,38,32.50
2021,06,28,13,39,32.60
2021,06,28,13,40,32.50
2021,06,28,13,41,32.50
2021,06,28,13,42,32.50
2021,06,28,13,43,32.40
2021,06,28,13,44,32.40
2021,06,28,13,45,32.40
2021,06,28,13,46,32.40
2021,06,28,13,47,32.40
2021,06,28,13,48,32.40
2021,06,28,13,49,32.40
2021,06,28,13,50,32.50
2021,06,28,13,51,32.50
2021,06,28,13,52,32.50
2021,06,28,13,53,32.50
2021,06,28,13,54,32.40
2021,06,28,13,55,32.40
2021,06,28,13,56,32.30
2021,06,28,13,57,32.20
2021,06,28,13,58,32.20
2021,06,28,13,59,32.10
2021,06,28,14,00,32.00
2021,06,28,14,01,32.00
2021,06,28,14,02,31.90
2021,06,28,14,03,31.90
2021,06,28,14,04,31.80
2021,06,28,14,05,31.80
2021,06,28,14,06,31.70
2021,06,28,14,07,31.80
2021,06,28,14,08,31.80
2021,06,28,14,09,31.80
2021,06,28,14,10,31.80
2021,06,28,14,11,31.90
2021,06,28,14,12,32.00
2021,06,28,14,13,32.10
2021,06,28,14,14,32.10
2021,06,28,14,15,32.20
2021,06,28,14,16,32.20
2021,06,28,14,17,32.20
2021,06,28,14,18,32.20
2021,06,28,14,19,32.10
2021,06,28,14,20,32.10
2021,06,28,14,21,32.10
2021,06,28,14,22,32.10
2021,06,28,14,23,32.20
2021,06,28,14,24,32.20
2021,06,28,14,25,32.20
2021,06,28,14,26,32.20
2021,06,28,14,27,32.30
2021,06,28,14,28,32.30
2021,06,28,14,29,32.30
2021,06,28,14,30,32.30
2021,06,28,14,31,32.20
2021,06,28,14,32,32.20
2021,06,28,14,33,32.20
2021,06,28,14,34,32.30
2021,06,28,14,35,32.30
2021,06,28,14,36,32.40
2021,06,28,14,37,32.40
2021,06,28,14,38,32.40
2021,06,28,14,39,32.40
2021,06,28,14,40,32.40
2021,06,28,14,41,32.40
2021,06,28,14,42,32.50
2021,06,28,14,43,32.60
2021,06,28,14,44,32.60
2021,06,28,14,45,32.60
2021,06,28,14,46,32.70
2021,06,28,14,47,32.70
2021,06,28,14,48,32.80
2021,06,28,14,49,32.80
2021,06,28,14,50,32.90
2021,06,28,14,51,32.90
2021,06,28,14,52,32.90
2021,06,28,14,53,32.90
2021,06,28,14,54,32.90
2021,06,28,14,55,33.00
2021,06,28,14,56,33.00
2021,06,28,14,57,33.10
2021,06,28,14,58,33.10
2021,06,28,14,59,33.10
2021,06,28,15,00,33.10
2021,06,28,15,01,33.10
2021,06,28,15,02,33.10
2021,06,28,15,03,33.10
2021,06,28,15,04,33.20
2021,06,28,15,05,33.30
2021,06,28,15,06,33.30
2021,06,28,15,07,33.40
2021,06,28,15,08,33.40
2021,06,28,15,09,33.50
2021,06,28,15,10,33.60
2021,06,28,15,11,33.70
2021,06,28,15,12,33.70
2021,06,28,15,13,33.80
2021,06,28,15,14,33.90
2021,06,28,15,15,33.90
2021,06,28,15,16,33.90
2021,06,28,15,17,33.90
2021,06,28,15,18,34.00
2021,06,28,15,19,34.00
2021,06,28,15,20,34.10
2021,06,28,15,21,34.20
2021,06,28,15,22,34.30
2021,06,28,15,23,34.40
2021,06,28,15,24,34.50
2021,06,28,15,25,34.60
2021,06,28,15,26,34.60
2021,06,28,15,27,34.70
2021,06,28,15,28,34.70
2021,06,28,15,29,34.70
2021,06,28,15,30,34.70
2021,06,28,15,31,34.70
2021,06,28,15,32,34.70
2021,06,28,15,33,34.70
2021,06,28,15,34,34.80
2021,06,28,15,35,34.80
2021,06,28,15,36,34.80
2021,06,28,15,37,34.90
2021,06,28,15,38,34.90
2021,06,28,15,39,34.90
2021,06,28,15,40,34.90
2021,06,28,15,41,34.90
2021,06,28,15,42,34.80
2021,06,28,15,43,34.80
2021,06,28,15,44,34.80
2021,06,28,15,45,34.80
2021,06,28,15,46,34.90
2021,06,28,15,47,34.80
2021,06,28,15,48,34.80
2021,06,28,15,49,34.90
2021,06,28,15,50,34.90
2021,06,28,15,51,34.90
2021,06,28,15,52,34.90
2021,06,28,15,53,34.90
2021,06,28,15,54,34.80
2021,06,28,15,55,34.80
2021,06,28,15,56,34.80
2021,06,28,15,57,34.80
2021,06,28,15,58,34.80
2021,06,28,15,59,34.80
2021,06,28,16,00,34.80
2021,06,28,16,01,34.80
2021,06,28,16,02,34.80
2021,06,28,16,03,34.90
2021,06,28,16,04,34.90
2021,06,28,16,05,35.00
2021,06,28,16,06,35.00
2021,06,28,16,07,34.90
2021,06,28,16,08,34.80
2021,06,28,16,09,34.80
2021,06,28,16,10,34.80
2021,06,28,16,11,34.70
2021,06,28,16,12,34.80
2021,06,28,16,13,34.80
2021,06,28,16,14,34.80
2021,06,28,16,15,34.80
2021,06,28,16,16,34.70
2021,06,28,16,17,34.60
2021,06,28,16,18,34.60
2021,06,28,16,19,34.60
2021,06,28,16,20,34.60
2021,06,28,16,21,34.60
2021,06,28,16,22,34.50
2021,06,28,16,23,34.40
2021,06,28,16,24,34.40
2021,06,28,16,25,34.30
2021,06,28,16,26,34.30
2021,06,28,16,27,34.20
2021,06,28,16,28,34.10
2021,06,28,16,29,34.10
2021,06,28,16,30,34.10
2021,06,28,16,31,34.10
2021,06,28,16,32,34.10
2021,06,28,16,33,34.10
2021,06,28,16,34,34.10
2021,06,28,16,35,34.20
2021,06,28,16,36,34.20
2021,06,28,16,37,34.30
2021,06,28,16,38,34.40
2021,06,28,16,39,34.40
2021,06,28,16,40,34.40
2021,06,28,16,41,34.40
2021,06,28,16,42,34.40
2021,06,28,16,43,34.40
2021,06,28,16,44,34.30
2021,06,28,16,45,34.30
2021,06,28,16,46,34.40
2021,06,28,16,47,34.40
2021,06,28,16,48,34.40
2021,06,28,16,49,34.50
2021,06,28,16,50,34.50
2021,06,28,16,51,34.50
2021,06,28,16,52,34.60
2021,06,28,16,53,34.60
2021,06,28,16,54,34.60
2021,06,28,16,55,34.60
2021,06,28,16,56,34.60
2021,06,28,16,57,34.70
2021,06,28,16,58,34.70
2021,06,28,16,59,34.70
2021,06,28,17,00,34.80
2021,06,28,17,01,34.80
2021,06,28,17,02,34.80
2021,06,28,17,03,34.80
2021,06,28,17,04,34.90
2021,06,28,17,05,34.90
2021,06,28,17,06,34.90
2021,06,28,17,07,34.90
2021,06,28,17,08,34.90
2021,06,28,17,09,34.90
2021,06,28,17,10,35.00
2021,06,28,17,11,35.10
2021,06,28,17,12,35.10
2021,06,28,17,13,35.10
2021,06,28,17,14,35.10
2021,06,28,17,15,35.10
2021,06,28,17,16,35.20
2021,06,28,17,17,35.20
2021,06,28,17,18,35.20
2021,06,28,17,19,35.20
2021,06,28,17,20,35.20
2021,06,28,17,21,35.10
2021,06,28,17,22,35.10
2021,06,28,17,23,35.10
2021,06,28,17,24,35.10
2021,06,28,17,25,35.10
2021,06,28,17,26,35.10
2021,06,28,17,27,35.10
2021,06,28,17,28,35.10
2021,06,28,17,29,35.10
2021,06,28,17,30,35.10
2021,06,28,17,31,35.00
2021,06,28,17,32,35.10
2021,06,28,17,33,35.10
2021,06,28,17,34,35.20
2021,06,28,17,35,35.20
2021,06,28,17,36,35.30
2021,06,28,17,37,35.30
2021,06,28,17,38,35.30
2021,06,28,17,39,35.40
2021,06,28,17,40,35.40
2021,06,28,17,41,35.40
2021,06,28,17,42,35.30
2021,06,28,17,43,35.20
2021,06,28,17,44,35.10
2021,06,28,17,45,35.10
2021,06,28,17,46,35.00
2021,06,28,17,47,35.00
2021,06,28,17,48,35.00